Meath Environmental Platform

Observations for Trim Patrick St

Time AQI Temp °C Hum % Pres Pa CO μg/m³ H₂S μg/m³ NO μg/m³ NO₂ μg/m³ O₃ μg/m³ SO₂ μg/m³ PM1 μg/m³ PM2.5 μg/m³ PM10 μg/m³
Sunday 9 August 2026
04:40 2 18.6 68 79,172 0 0.49 2.26 10.86 41.92 0 3.71 7.46 8.21
04:37 2 18.6 68 79,123 0 0.36 2.18 13.35 40.58 0 3.71 7.47 8.22
04:36 2 18.6 67 79,095 0.01 0.44 2.31 18.41 50.71 0 3.71 7.54 8.29
04:35 2 18.6 68 79,046 0 0 2.13 8.27 41.72 0.09 4.57 8.19 9.01
04:34 2 18.6 68 79,034 0 1.1 2.16 13.15 55.79 0 2.86 6.74 7.42
04:33 2 18.6 68 78,946 0 0.96 2.21 12.57 39.82 0 3.71 7.47 8.21
04:32 2 18.6 68 78,873 0 0.86 2.33 14.81 51.83 0 3.71 7.49 8.24
04:31 2 18.6 68 78,818 0.02 0 2.19 12.48 41 0 3.71 7.47 8.22
04:30 2 18.6 68 78,800 0 0 2.13 12.3 40.04 0 2.86 7.48 8.23
04:29 2 18.6 68 78,789 0 0 2.13 12.62 47.83 0 2 6.76 7.44
04:28 2 18.6 67 78,812 0 0 2.17 11.2 39.05 0 2 6.82 7.51
04:27 2 18.6 67 78,814 0 0 1.91 12.04 41.75 0 2 6.79 7.47
04:26 2 18.6 68 78,792 0 0.41 2.02 18.73 53.23 0 3.71 7.47 8.21
04:25 2 18.6 68 78,761 0 0 2.21 11.46 41.55 0 4.57 8.21 9.03
04:24 2 18.6 67 78,694 0 0 2.2 16.1 46.37 0 2 6.05 6.65
04:23 2 18.6 67 78,653 0.01 0 2.26 13.95 41.37 0 2.86 6.79 7.47
04:22 2 18.6 68 78,607 0 0 2.16 9.67 41.67 0 2 6.74 7.42
04:20 2 18.6 68 78,594 0 0.47 1.98 13.47 47.98 0 2.86 6.76 7.43
04:19 2 18.6 68 78,562 0 0 2.04 16.04 47.55 0 2.86 6.75 7.42
04:17 2 18.6 68 78,549 0 0 1.96 19.84 46.6 0 3.71 8.92 9.81